Tracking 29892 objects as of 21-Nov-2024
HD Live streaming from Space Station
objects crossing your sky now

ONEWEB-0393

Track ONEWEB-0393 now!
10-day predictions
ONEWEB-0393 is classified as:


NORAD ID: 50473
Int'l Code: 2021-132E
Perigee: 1,199.6 km
Apogee: 1,202.1 km
Inclination: 87.9 °
Period: 109.3 minutes
Semi major axis: 7571 km
RCS: Unknown
Launch date: December 27, 2021
Source: United Kingdom (UK)
Launch site: TYURATAM MISSILE AND SPACE COMPLEX (TTMTR)
Your satellite tracking list
Your tracking list is empty




NASA's NSSDC Master Catalog

Two Line Element Set (TLE):
1 50473U 21132E   24325.88752760  .00000065  00000-0  13442-3 0  9995
2 50473  87.9082 120.0509 0001617 103.5992 256.5320 13.17649246142616
Source of the keplerian elements: AFSPC